[[{"header":{"parameterUnit":"m.s-1","parameterCategory":1,"la1":30.2991,"la2":30.254,"lo1":-89.0895,"lo2":-89.0444,"dy":0.0017,"dx":0.0017,"nx":28,"ny":28,"refTime":"2023-07-25T03:00:00:Z","depth":0,"parameterNumber":2,"parameterNumberName":"U-component_of_WINDS"},"data":[0,0,0,0,0,0,0,0,0,0,0,0,0,0,0,0,0,0,0,0,0,0,0,0,0,0,0,0,0,0,0,0,0,0,0,0,0,0,0,0,0,0,0,0,0,0,0,0,0,0,0,0,0,0,0,0,0,0,2.4689,2.469,0,2.4736,2.4737,2.4737,2.4706,2.4705,2.4703,2.4702,2.4749,2.4752,2.4754,0,0,0,0,0,0,0,0,0,0,0,0,0,2.4569,2.4571,2.4689,2.469,2.469,2.4736,2.4737,2.4737,2.4707,2.4705,2.4703,2.4702,2.4748,2.4751,2.4754,0,0,0,0,0,0,0,0,0,0,0,0,0,2.4619,2.4572,2.4689,2.468,2.468,2.4736,2.4737,2.4738,2.4707,2.4705,2.4703,2.4701,2.4747,2.4751,2.4755,2.4821,0,0,2.4767,2.4768,0,0,0,0,0,0,0,0,2.4616,2.4624,2.4681,2.4681,2.4681,2.4713,2.4712,2.4766,2.4707,2.4697,2.4702,2.47,2.4739,2.4743,2.4757,2.4824,2.4826,2.4767,2.4769,2.4771,2.4772,0,0,0,0,0,0,0,2.4613,2.4621,2.4708,2.4682,2.4682,2.4673,2.4678,2.4722,2.4729,2.4697,2.4695,2.4701,2.4738,2.4753,2.4758,2.4826,2.4767,2.477,2.4773,2.4774,2.4946,2.4949,0,0,0,0,0,0,2.461,2.4619,2.4706,2.4709,2.4643,2.4677,2.4682,2.4705,2.4729,2.473,2.4703,2.47,2.4748,2.4753,2.4759,2.4836,2.4771,2.4775,2.4777,2.4944,2.4947,2.4949,0,0,0,0,0,0,2.4608,2.4619,2.4704,2.4663,2.4674,2.4681,2.4707,2.4707,2.4722,2.4733,2.4734,2.4717,2.4746,2.4754,2.4805,2.4837,2.4776,2.478,2.4942,2.4945,2.4948,2.4992,0,0,0,0,0,0,2.4605,2.4618,2.4644,2.4664,2.4676,2.4751,2.4709,2.4709,2.4729,2.4725,2.4746,2.4748,2.4745,2.48,2.4809,2.4841,2.4783,2.4939,2.4943,2.4947,2.4987,2.4996,2.5004,0,0,0,0,0,2.46,2.4655,2.4646,2.4656,2.4709,2.4753,2.4759,2.4756,2.4731,2.4757,2.4764,2.4747,2.4833,2.4805,2.4816,2.485,2.4937,2.4942,2.4947,2.4984,2.4994,2.5003,0,0,0,0,0,0,2.4639,2.4657,2.4647,2.471,2.473,2.4747,2.478,2.4767,2.4794,2.4789,2.4783,2.4788,2.4842,2.4851,2.482,2.4913,2.4881,2.4888,2.4905,2.4915,2.4923,2.4919,2.4786,0,0,0,0,0,2.4654,2.4689,2.4704,2.4757,2.4768,2.4772,2.4791,2.4786,2.4807,2.4815,2.4825,2.4845,2.4876,2.4896,2.4926,2.4989,2.4992,2.5017,2.5025,2.5032,2.5038,2.5068,2.5079,2.4966,2.4966,2.4966,0,0,2.4687,2.4702,2.4724,2.4765,2.478,2.4815,2.478,2.4818,2.4843,2.4821,2.4869,2.4878,2.4899,2.4956,2.4982,2.4965,2.507,2.5038,2.5044,2.5046,2.5075,2.5085,2.5095,2.4969,2.4969,2.4968,0,0,2.4764,2.478,2.4825,2.484,2.4863,2.4865,2.4876,2.4895,2.4899,2.4948,2.4931,2.496,2.5015,2.503,2.5044,2.5124,2.5109,2.5134,2.5176,2.5206,2.5215,2.5223,2.5248,2.5258,2.5141,2.5141,2.5141,0,2.4802,2.4854,2.4849,2.4889,2.4906,2.4887,2.4931,2.4946,2.4977,2.4989,2.4971,2.5037,2.505,2.5108,2.5128,2.5142,2.5152,2.5131,2.5214,2.5222,2.5229,2.5253,2.5263,2.5143,2.5143,2.5143,2.5143,0,2.4897,2.4934,2.4967,2.4997,2.5018,2.506,2.506,2.5083,2.5076,2.5079,2.5128,2.5143,2.5173,2.5187,2.5182,2.5244,2.5233,2.5215,2.5181,2.5243,2.5265,2.5275,2.5147,2.5146,2.5145,2.5145,0,0,2.4999,2.5025,2.5037,2.5049,2.5072,2.5099,2.5139,2.5169,2.5186,2.5209,2.524,2.5286,2.5268,2.5284,2.528,2.5307,2.5365,2.5285,2.5285,2.5297,2.5432,2.5444,2.5455,2.5356,2.5358,2.5359,2.5429,0,2.5075,2.5145,2.5141,2.5206,2.5237,2.5219,2.5253,2.527,2.5274,2.5301,2.5305,2.5336,2.5312,2.5322,2.5348,2.5353,2.5392,2.5348,2.5383,2.5385,2.5376,2.5467,2.5481,2.5546,2.5438,2.544,2.5441,0,2.5173,2.5197,2.5265,2.528,2.5293,2.5324,2.5349,2.5376,2.5394,2.5395,2.5413,2.5403,2.5441,2.5408,2.546,2.543,2.5444,2.5449,2.5451,2.5452,2.5415,2.5468,2.5567,2.5576,2.5456,2.5454,2.5453,0,2.5237,2.5286,2.5332,2.5343,2.5363,2.5385,2.5394,2.541,2.5427,2.545,2.546,2.5487,2.5501,2.5522,2.5519,2.5496,2.557,2.5538,2.557,2.557,2.5585,2.5583,2.5684,2.5598,2.5598,2.5598,2.5598,0,2.532,2.5362,2.5361,2.5389,2.5434,2.5429,2.5473,2.548,2.5494,2.5521,2.5508,2.5534,2.553,2.5556,2.5554,2.5595,2.5602,2.5603,2.5601,2.5602,2.5602,2.561,2.5604,2.5601,2.56,2.56,2.5599,0,2.5398,2.54,2.5448,2.5463,2.5467,2.5499,2.5511,2.5537,2.5539,2.5574,2.5582,2.5586,2.5616,2.5615,2.565,2.5648,2.5698,2.5692,2.5691,2.5689,2.5721,2.5716,2.5828,2.5841,2.5749,2.575,2.5751,0,2.545,2.5481,2.5499,2.5516,2.5526,2.5555,2.5572,2.5568,2.5586,2.5608,2.563,2.5659,2.5681,2.5728,2.5734,2.5759,2.5752,2.579,2.5756,2.5755,2.5749,2.5746,2.5748,2.5795,2.5796,2.5797,2.5798,0,2.5541,2.554,2.5565,2.559,2.5611,2.5631,2.5649,2.5664,2.5661,2.5682,2.5712,2.5729,2.5762,2.579,2.5814,2.5822,2.5809,2.5809,2.5817,2.5817,2.5814,2.5813,2.5706,2.5806,2.5805,2.5804,2.5804,2.5804,2.5606,2.5632,2.5647,2.5675,2.5688,2.5704,2.5728,2.5733,2.5758,2.5785,2.5781,2.5813,2.5828,2.5859,2.5869,2.5893,2.588,2.5893,2.5896,2.5898,2.59,2.5812,2.5898,2.5898,2.5898,2.5898,2.5898,0,2.5694,2.5702,2.5728,2.5753,2.5774,2.5761,2.5779,2.5797,2.5826,2.5841,2.5863,2.5896,2.5922,2.5929,2.5953,2.5971,2.5965,2.5977,2.5975,2.5976,2.5912,2.5901,2.5981,2.5981,2.5981,2.5981,2.5981,2.5981,2.5742,2.5783,2.5783,2.583,2.5838,2.5869,2.5881,2.5895,2.5907,2.5944,2.5965,2.5969,2.5981,2.6005,2.6028,2.6029,2.6037,2.6051,2.605,2.599,2.5981,2.5973,2.5962,2.6054,2.6054,2.6111,2.6112,2.6112]},{"header":{"parameterUnit":"m.s-1","parameterCategory":1,"la1":30.2991,"la2":30.254,"lo1":-89.0895,"lo2":-89.0444,"dy":0.0017,"dx":0.0017,"nx":28,"ny":28,"refTime":"2023-07-25T03:00:00:Z","depth":0,"parameterNumber":3,"parameterNumberName":"V-component_of_WINDS"},"data":[0,0,0,0,0,0,0,0,0,0,0,0,0,0,0,0,0,0,0,0,0,0,0,0,0,0,0,0,0,0,0,0,0,0,0,0,0,0,0,0,0,0,0,0,0,0,0,0,0,0,0,0,0,0,0,0,0,0,1.1201,1.1201,0,1.1194,1.1193,1.1193,1.1144,1.1143,1.1141,1.114,1.1133,1.1134,1.1135,0,0,0,0,0,0,0,0,0,0,0,0,0,1.1172,1.1173,1.1201,1.1201,1.1201,1.1194,1.1193,1.1193,1.1144,1.1143,1.1141,1.114,1.1133,1.1134,1.1135,0,0,0,0,0,0,0,0,0,0,0,0,0,1.1177,1.1173,1.1201,1.1175,1.1173,1.1194,1.1193,1.1193,1.1144,1.1143,1.1141,1.1139,1.1133,1.1134,1.1135,1.118,0,0,1.114,1.114,0,0,0,0,0,0,0,0,1.1176,1.1178,1.1179,1.1177,1.1175,1.1168,1.1181,1.1189,1.1145,1.1155,1.114,1.1138,1.1146,1.1146,1.1149,1.118,1.118,1.114,1.1141,1.1141,1.1142,0,0,0,0,0,0,0,1.1176,1.1178,1.1198,1.1179,1.1176,1.1164,1.1163,1.1182,1.1161,1.1154,1.1151,1.115,1.1145,1.1148,1.1149,1.118,1.114,1.1141,1.1142,1.1142,1.1245,1.1247,0,0,0,0,0,0,1.1179,1.1178,1.1198,1.1198,1.1171,1.1166,1.1164,1.1172,1.1161,1.1157,1.1152,1.1148,1.1146,1.1147,1.1148,1.1199,1.1141,1.1143,1.1143,1.1243,1.1245,1.1247,0,0,0,0,0,0,1.1179,1.1182,1.1199,1.1187,1.1188,1.1168,1.1177,1.1173,1.1176,1.1159,1.1155,1.1159,1.1145,1.1146,1.1172,1.1198,1.1143,1.1145,1.1241,1.1244,1.1246,1.1301,0,0,0,0,0,0,1.1178,1.1182,1.1199,1.1188,1.1189,1.1223,1.1179,1.1174,1.1178,1.1173,1.1165,1.1161,1.1144,1.117,1.1174,1.1199,1.1146,1.1238,1.1242,1.1245,1.1297,1.1305,1.1312,0,0,0,0,0,1.1178,1.1215,1.12,1.1203,1.121,1.1225,1.1226,1.1204,1.118,1.1197,1.1186,1.1162,1.1194,1.1173,1.1177,1.1203,1.1237,1.1241,1.1245,1.1293,1.1304,1.1312,0,0,0,0,0,0,1.1231,1.1214,1.1197,1.1232,1.123,1.1217,1.1237,1.1216,1.1221,1.1216,1.119,1.1188,1.1218,1.1213,1.119,1.1244,1.1211,1.1216,1.1247,1.1256,1.1264,1.1265,1.1147,0,0,0,0,0,1.1247,1.1261,1.1245,1.1277,1.1277,1.1257,1.1263,1.1246,1.1244,1.1243,1.1234,1.1232,1.1242,1.1249,1.1257,1.1296,1.1292,1.1315,1.1323,1.1329,1.1334,1.1352,1.1362,1.1261,1.1261,1.1261,0,0,1.1281,1.1272,1.1283,1.1288,1.1285,1.1299,1.1257,1.1275,1.1285,1.1246,1.1269,1.1262,1.1259,1.1291,1.1304,1.1287,1.1361,1.1335,1.134,1.1341,1.1358,1.1367,1.1376,1.1264,1.1263,1.1263,0,0,1.1348,1.1344,1.137,1.1367,1.1362,1.1348,1.1354,1.1343,1.1337,1.136,1.1331,1.1342,1.136,1.1358,1.1359,1.1424,1.1401,1.1427,1.1468,1.1486,1.1494,1.1501,1.1523,1.1532,1.1432,1.1432,1.1432,0,1.139,1.141,1.1386,1.1404,1.1407,1.1371,1.1397,1.1395,1.1394,1.1396,1.1377,1.1397,1.1392,1.1422,1.1438,1.144,1.1446,1.1428,1.1495,1.1502,1.1508,1.1529,1.1537,1.1435,1.1435,1.1434,1.1434,0,1.1461,1.1476,1.1497,1.1495,1.15,1.1522,1.1501,1.1509,1.1491,1.1479,1.1502,1.1495,1.15,1.1506,1.149,1.1533,1.1523,1.15,1.1466,1.1521,1.154,1.1548,1.1439,1.1438,1.1437,1.1437,0,0,1.1564,1.1547,1.1555,1.1553,1.1544,1.1554,1.1574,1.1578,1.1585,1.1585,1.16,1.1615,1.1593,1.1594,1.1577,1.1593,1.1643,1.1568,1.1568,1.1582,1.169,1.1707,1.1716,1.1628,1.1629,1.1631,1.169,0,1.1628,1.166,1.1638,1.1674,1.1686,1.1652,1.1669,1.1665,1.1654,1.1662,1.165,1.1661,1.1632,1.1632,1.1646,1.1634,1.1665,1.163,1.1641,1.1642,1.1643,1.1726,1.1745,1.1801,1.1697,1.1698,1.1699,0,1.1707,1.1709,1.1746,1.1733,1.1737,1.1753,1.1754,1.1763,1.1757,1.1748,1.1749,1.1727,1.1744,1.1711,1.1734,1.1711,1.1714,1.1709,1.1711,1.1711,1.1674,1.1728,1.1818,1.1827,1.1711,1.171,1.1709,0,1.1777,1.1788,1.1812,1.1811,1.1797,1.1808,1.1803,1.1795,1.1799,1.18,1.1801,1.1805,1.1807,1.1809,1.1789,1.1766,1.1814,1.178,1.1807,1.1807,1.1818,1.1818,1.191,1.1822,1.1821,1.1821,1.1821,0,1.185,1.1874,1.1842,1.1857,1.1882,1.1856,1.1881,1.1872,1.1866,1.1877,1.1848,1.1859,1.1831,1.1839,1.1823,1.1844,1.1846,1.1838,1.1834,1.1841,1.1841,1.1842,1.1838,1.1823,1.1823,1.1823,1.1822,0,1.1932,1.1912,1.1935,1.1919,1.1915,1.1934,1.192,1.1933,1.1919,1.1934,1.1936,1.1914,1.1923,1.1902,1.1907,1.1896,1.1926,1.1916,1.1928,1.1925,1.1953,1.195,1.2048,1.2059,1.1965,1.1965,1.1966,0,1.198,1.1997,1.1982,1.1988,1.1983,1.1993,1.1995,1.197,1.1974,1.1968,1.198,1.1986,1.1989,1.2003,1.1988,1.1992,1.198,1.2015,1.1981,1.1987,1.198,1.1979,1.198,1.2022,1.2023,1.2024,1.2024,0,1.2067,1.2056,1.2061,1.2062,1.2066,1.2066,1.2064,1.207,1.2042,1.2048,1.2056,1.2058,1.2062,1.2068,1.2068,1.2061,1.2038,1.2035,1.2041,1.2049,1.2055,1.2051,1.1947,1.2033,1.2032,1.2032,1.2031,1.2031,1.2133,1.2146,1.2137,1.2143,1.2138,1.2137,1.2147,1.2134,1.2139,1.2141,1.2125,1.2135,1.2128,1.2125,1.2121,1.2128,1.2113,1.2122,1.2124,1.2127,1.2131,1.2054,1.2128,1.2128,1.2128,1.2128,1.2127,0,1.2217,1.2209,1.2215,1.2212,1.2217,1.2194,1.219,1.2195,1.2204,1.2199,1.2202,1.221,1.2214,1.2199,1.2201,1.221,1.22,1.2212,1.2211,1.2209,1.2146,1.2139,1.222,1.222,1.222,1.222,1.222,1.222,1.2261,1.2282,1.2269,1.2287,1.2278,1.2288,1.2287,1.2285,1.228,1.229,1.2294,1.2283,1.2274,1.2275,1.2278,1.2273,1.2275,1.2291,1.2282,1.2223,1.2214,1.2205,1.2199,1.2291,1.2292,1.2345,1.2346,1.2346]}]]